Zurück zum Katalog

COSMOS 1275 DEB

AktivPO
NORAD 12722·DEBRIS·🇷🇺 Russia

Gestartet Jun 4, 1981 von Plesetsk Cosmodrome

Loading…

Nächste Überflüge (nächste 24 Stunden)

TLE

AktuellSource: Space-Track

Epoche: Sep 13, 2026, 08:13 UTC

1 12722U 81053BP  26256.34279294  .00000505  00000-0  39341-3 0  9995
2 12722  82.9046   5.3675 0062574 324.0666  35.6297 13.89701154271115

Verfolge COSMOS 1275 DEB in Echtzeit mit AllMySat

Download on the App Store